Granite Falls, MN

10:05 PM CDT on August 20, 2017 (GMT -0500)
Granite Falls

Weather History for KGDB - November, 2013

Change the Weather History Date:

Sunday, November 10, 2013

  Actual Average (KMVE) Record (KMVE)
Temperature  
Mean Temperature 28 °F -  
Max Temperature 36 °F 41 °F 66 °F (2015)
Min Temperature 20 °F 23 °F 0 °F (1966)
Degree Days  
Heating Degree Days 37    
Moisture  
Dew Point 26 °F    
Average Humidity 81    
Maximum Humidity 92    
Minimum Humidity 69    
Precipitation  
Precipitation 0.00 in - - ()
Sea Level Pressure  
Sea Level Pressure 30.25 in    
Wind  
Wind Speed 9 mph (SSW)    
Max Wind Speed 17 mph    
Max Gust Speed 26 mph    
Visibility 9 miles    
Events      
Averages and records for this station are not official NWS values.
T = Trace of Precipitation, MM = Missing Value Source: NWS Daily Summary

Daily Weather History Graph

Daily Weather History Graph

Search for Another Location

Airport or City:

Trip Planner

Search our weather history database for the weather conditions in past years. The results will help you decide how hot, cold, wet, or windy it might be!

Date:

Astronomy

Nov. 10, 2013 Rise Set
Actual Time 7:12 AM CST 4:58 PM CST
Civil Twilight 6:41 AM CST 5:30 PM CST
Nautical Twilight 6:06 AM CST 6:05 PM CST
Astronomical Twilight 5:32 AM CST 6:39 PM CST
Moon 1:21 PM CST (11/10) No Moon Set
Length of Visible Light 10h 48m
Length of Day
9h 46m
First Quarter, 56% of the Moon is Illuminated
Nov 10
First Quarter
Nov 17
Full
Nov 25
Last Quarter
Dec 2
New
Dec 9
First Quarter

Hourly Weather History & Observations

Time (CST) Temp. Windchill Dew Point Humidity Pressure Visibility Wind Dir Wind Speed Gust Speed Precip Events Conditions
12:13 AM 34.7 °F 24.7 °F 25.5 °F 69% 30.32 in 10.0 mi WNW 16.1 mph 26.5 mph N/A   Overcast
12:32 AM 34.7 °F 25.5 °F 25.7 °F 70% 30.32 in 10.0 mi WNW 13.8 mph 18.4 mph N/A   Overcast
12:53 AM 34.2 °F 25.2 °F 25.7 °F 71% 30.33 in 10.0 mi WNW 12.7 mph - N/A   Overcast
1:13 AM 33.8 °F 25.3 °F 25.3 °F 71% 30.33 in 10.0 mi WNW 11.5 mph 17.3 mph N/A   Overcast
1:33 AM 33.3 °F 25.1 °F 25.3 °F 73% 30.33 in 10.0 mi WNW 10.4 mph - N/A   Overcast
1:52 AM 32.4 °F 24.6 °F 24.8 °F 74% 30.33 in 10.0 mi WNW 9.2 mph - N/A   Mostly Cloudy
2:13 AM 30.4 °F 23.6 °F 23.9 °F 77% 30.33 in 10.0 mi WNW 6.9 mph - N/A   Scattered Clouds
2:33 AM 30.0 °F 22.4 °F 23.9 °F 78% 30.33 in 7.0 mi WNW 8.1 mph - N/A   Scattered Clouds
2:53 AM 27.5 °F 21.1 °F 22.8 °F 83% 30.34 in 10.0 mi West 5.8 mph - N/A   Clear
3:13 AM 26.2 °F 17.8 °F 22.6 °F 86% 30.34 in 10.0 mi West 8.1 mph - N/A   Clear
3:33 AM 26.2 °F 18.6 °F 23.0 °F 88% 30.34 in 10.0 mi West 6.9 mph - N/A   Clear
3:52 AM 25.7 °F 18.0 °F 22.5 °F 88% 30.34 in 10.0 mi West 6.9 mph - N/A   Clear
4:13 AM 24.6 °F 18.8 °F 21.9 °F 89% 30.34 in 10.0 mi West 4.6 mph - N/A   Clear
4:33 AM 24.1 °F 16.0 °F 21.6 °F 90% 30.35 in 7.0 mi SW 6.9 mph - N/A   Clear
4:53 AM 24.6 °F 16.7 °F 21.9 °F 89% 30.35 in 10.0 mi WSW 6.9 mph - N/A   Clear
5:12 AM 23.0 °F 17.0 °F 20.5 °F 90% 30.35 in 10.0 mi WSW 4.6 mph - N/A   Clear
5:33 AM 22.6 °F 16.5 °F 20.7 °F 92% 30.35 in 10.0 mi WSW 4.6 mph - N/A   Clear
5:52 AM 22.3 °F 14.9 °F 20.1 °F 91% 30.36 in 10.0 mi SW 5.8 mph - N/A   Clear
6:13 AM 22.5 °F 17.8 °F 20.1 °F 91% 30.35 in 10.0 mi WSW 3.5 mph - N/A   Clear
6:32 AM 20.5 °F 12.8 °F 17.4 °F 88% 30.36 in 10.0 mi SW 5.8 mph - N/A   Clear
6:53 AM 21.7 °F 14.3 °F 19.4 °F 91% 30.35 in 10.0 mi SW 5.8 mph - N/A   Clear
7:13 AM 24.6 °F 17.7 °F 22.1 °F 90% 30.35 in 10.0 mi SW 5.8 mph - N/A   Clear
7:32 AM 25.3 °F 19.7 °F 22.5 °F 89% 30.35 in 7.0 mi SW 4.6 mph - N/A   Clear
7:53 AM 26.1 °F - 23.0 °F 88% 30.34 in 10.0 mi Calm Calm - N/A   Clear
8:12 AM 26.8 °F 21.4 °F 23.9 °F 89% 30.34 in 10.0 mi WSW 4.6 mph - N/A   Clear
8:33 AM 27.7 °F 21.3 °F 24.3 °F 87% 30.34 in 7.0 mi SW 5.8 mph - N/A   Clear
8:53 AM 28.9 °F 23.9 °F 25.0 °F 85% 30.34 in 7.0 mi SSW 4.6 mph - N/A   Clear
9:12 AM 29.5 °F 23.4 °F 25.5 °F 85% 30.33 in 7.0 mi SSW 5.8 mph - N/A   Clear
9:33 AM 30.6 °F 24.7 °F 26.2 °F 84% 30.34 in 7.0 mi SSW 5.8 mph - N/A   Clear
9:53 AM 31.6 °F 25.1 °F 26.6 °F 82% 30.35 in 7.0 mi SSW 6.9 mph - N/A   Clear
10:12 AM 32.7 °F 26.4 °F 27.5 °F 81% 30.34 in 7.0 mi SSW 6.9 mph - N/A   Scattered Clouds
10:33 AM 34.5 °F 27.3 °F 27.7 °F 76% 30.33 in 7.0 mi SSW 9.2 mph - N/A   Mostly Cloudy
10:52 AM 34.7 °F 26.9 °F 27.0 °F 73% 30.33 in 7.0 mi South 10.4 mph - N/A   Overcast
11:13 AM 34.7 °F 26.4 °F 26.6 °F 72% 30.32 in 7.0 mi South 11.5 mph - N/A   Overcast
11:33 AM 34.7 °F 26.4 °F 26.6 °F 72% 30.31 in 7.0 mi SSW 11.5 mph - N/A   Overcast
11:52 AM 34.7 °F 28.8 °F 27.3 °F 74% 30.30 in 7.0 mi South 6.9 mph - N/A   Overcast
12:13 PM 35.6 °F 28.6 °F 27.5 °F 72% 30.30 in 7.0 mi South 9.2 mph - N/A   Overcast
12:32 PM 35.8 °F 28.3 °F 27.5 °F 72% 30.26 in 7.0 mi South 10.4 mph - N/A   Overcast
12:53 PM 36.3 °F 30.1 °F 28.2 °F 72% 30.26 in 7.0 mi SSW 8.1 mph - N/A   Overcast
1:13 PM 35.8 °F 30.1 °F 27.5 °F 72% 30.26 in 7.0 mi SSW 6.9 mph - N/A   Overcast
1:33 PM 35.8 °F 29.4 °F 28.0 °F 73% 30.24 in 7.0 mi South 8.1 mph - N/A   Overcast
1:53 PM 35.6 °F 29.9 °F 28.0 °F 74% 30.23 in 7.0 mi South 6.9 mph - N/A   Overcast
2:13 PM 35.2 °F 28.1 °F 27.9 °F 74% 30.22 in 7.0 mi SSE 9.2 mph - N/A   Overcast
2:33 PM 35.6 °F 29.9 °F 27.9 °F 73% 30.21 in 7.0 mi SSE 6.9 mph - N/A   Overcast
2:53 PM 35.2 °F 28.8 °F 28.0 °F 75% 30.20 in 7.0 mi SSE 8.1 mph - N/A   Overcast
3:12 PM 35.1 °F 29.3 °F 27.5 °F 74% 30.19 in 7.0 mi SE 6.9 mph - N/A   Overcast
3:33 PM 35.1 °F 28.6 °F 27.9 °F 75% 30.18 in 7.0 mi SE 8.1 mph - N/A   Overcast
3:52 PM 35.2 °F 28.1 °F 28.0 °F 75% 30.16 in 7.0 mi SE 9.2 mph - N/A   Overcast
4:13 PM 35.2 °F 30.3 °F 28.4 °F 76% 30.15 in 7.0 mi SE 5.8 mph - N/A   Overcast
4:32 PM 35.6 °F 29.9 °F 29.3 °F 78% 30.16 in 7.0 mi SSE 6.9 mph - N/A   Overcast
4:53 PM 35.6 °F 29.2 °F 29.7 °F 79% 30.15 in 7.0 mi SSE 8.1 mph - N/A   Overcast
5:12 PM 35.4 °F 29.0 °F 30.0 °F 81% 30.16 in 10.0 mi SSE 8.1 mph - N/A   Overcast
5:33 PM 35.2 °F 29.5 °F 30.0 °F 81% 30.15 in 10.0 mi SSE 6.9 mph - N/A   Overcast
5:53 PM 35.2 °F 29.5 °F 30.2 °F 82% 30.14 in 10.0 mi SSE 6.9 mph - N/A   Overcast
6:12 PM 35.6 °F 30.7 °F 30.2 °F 81% 30.14 in 10.0 mi SSE 5.8 mph - N/A   Overcast
6:33 PM 35.8 °F 30.9 °F 30.0 °F 80% 30.13 in 10.0 mi SE 5.8 mph - N/A   Overcast
6:53 PM 36.1 °F 33.5 °F 30.2 °F 79% 30.13 in 7.0 mi ESE 3.5 mph - N/A   Overcast
7:13 PM 34.7 °F 29.6 °F 30.0 °F 83% 30.13 in 7.0 mi ESE 5.8 mph - N/A   Overcast
7:33 PM 34.5 °F 29.4 °F 30.2 °F 84% 30.12 in 10.0 mi ESE 5.8 mph - N/A   Overcast
7:52 PM 34.2 °F 29.0 °F 30.2 °F 85% 30.11 in 10.0 mi SE 5.8 mph - N/A   Mostly Cloudy
8:13 PM 33.3 °F - 29.7 °F 87% 30.12 in 10.0 mi Calm Calm - N/A   Mostly Cloudy
8:32 PM 32.4 °F 29.1 °F 29.8 °F 90% 30.11 in 10.0 mi NNE 3.5 mph - N/A   Mostly Cloudy
8:53 PM 32.0 °F 28.7 °F 29.3 °F 90% 30.13 in 7.0 mi North 3.5 mph - N/A   Scattered Clouds
9:12 PM 32.2 °F - 29.8 °F 91% 30.12 in 10.0 mi Calm Calm - N/A   Mostly Cloudy
9:33 PM 31.5 °F 28.1 °F 28.9 °F 90% 30.12 in 7.0 mi SE 3.5 mph - N/A   Overcast
9:53 PM 32.2 °F - 30.0 °F 92% 30.13 in 10.0 mi Calm Calm - N/A   Overcast
10:12 PM 32.9 °F - 30.0 °F 89% 30.12 in 7.0 mi Calm Calm - N/A   Overcast
10:33 PM 33.4 °F 28.1 °F 30.7 °F 90% 30.15 in 10.0 mi NW 5.8 mph - N/A   Overcast
10:53 PM 35.1 °F 27.4 °F 30.2 °F 82% 30.15 in 10.0 mi NW 10.4 mph - N/A   Overcast
11:12 PM 35.1 °F 26.4 °F 29.7 °F 81% 30.16 in 10.0 mi NNW 12.7 mph - N/A   Overcast
11:33 PM 34.9 °F 24.9 °F 28.9 °F 79% 30.16 in 10.0 mi NNW 16.1 mph 20.7 mph N/A   Overcast
11:53 PM 34.0 °F 23.4 °F 28.6 °F 81% 30.18 in 10.0 mi NNW 17.3 mph 21.9 mph N/A   Overcast